Content
SEND FEEDBACK

Daily
Averages
Monthly
Summary
United States of America

ROE, ARKANSAS


Home > North America > United States > Arkansas
Elevation: 180 feet     Latitude: 34 41N     Longitude: 091 19W

WEATHER
 
SELECT A DAY
Number of Records: 452,862;   Date Range: 1/1/95 - 7/26/14
 
SHARE

PRINT THIS DATA

[ ← Previous Day ]
WEATHER ALMANAC - JANUARY 23, 2013
[ Next Day → ]
[ °C ]   °F
Weather ElementAverageHighLow
Temperature44 °F57.2 °F (3:15 pm)30.2 °F (12:35 am)
Dewpoint33.7 °F42.8 °F (6:35 pm)23 °F (2:15 am)
Humidity67.9 %81 % (9:15 pm)50 % (11:55 am)
Barometer30.28 in30.36 in (1:15 am)30.20 in (5:15 pm)
Wind Speed4.2 mph9.2 mph (11:55 am)
Weather ElementAverage
Visibility10 mi
Wind DirectionESE (96 °)

Weather ElementTotal
Precipitation---
Heating Degree Days21.3 (Base 65)
Averaged from 55 records on January 23, 2013
WEATHER CONDITIONS BREAKOUT
WIND DIRECTION BREAKOUT
WEATHER BY HOUR - JANUARY 23, 2013
[ °C ]   °F
Local TimeTemperatureDewpointHumidityBarometerVisibilityWind DirectionWind SpeedGust SpeedPrecipitationEventsConditions
12:35 AM30.2 °F24.8 °F80 %30.35 in10.0 miNE (50°)5.8 mphClear
1:15 AM30.2 °F24.8 °F80 %30.36 in10.0 miNE (50°)5.8 mphPartly Cloudy
1:35 AM30.2 °F24.8 °F80 %30.36 in10.0 miNE (40°)6.9 mphPartly Cloudy
2:15 AM30.2 °F23.0 °F75 %30.35 in10.0 miENE (70°)5.8 mphScattered Clouds
2:35 AM30.2 °F24.8 °F80 %30.35 in10.0 miENE (60°)4.6 mphMostly Cloudy
3:15 AM32.0 °F24.8 °F75 %30.35 in10.0 miNE (50°)4.6 mphOvercast
4:15 AM32.0 °F24.8 °F75 %30.35 in10.0 miNE (50°)5.8 mphOvercast
4:35 AM33.8 °F24.8 °F70 %30.34 in10.0 miENE (70°)4.6 mphOvercast
5:15 AM33.8 °F24.8 °F70 %30.34 in10.0 miEast (100°)3.5 mphOvercast
5:35 AM33.8 °F26.6 °F75 %30.34 in10.0 miCalmOvercast
5:55 AM33.8 °F24.8 °F70 %30.35 in10.0 miCalmOvercast
6:35 AM33.8 °F26.6 °F75 %30.35 in10.0 miENE (60°)3.5 mphOvercast
6:55 AM33.8 °F24.8 °F70 %30.34 in10.0 miEast (80°)3.5 mphOvercast
7:15 AM35.6 °F26.6 °F70 %30.34 in10.0 miCalmOvercast
7:36 AM35.6 °F26.6 °F70 %30.34 in10.0 miNE (50°)3.5 mphOvercast
7:55 AM35.6 °F26.6 °F70 %30.33 in10.0 miESE (110°)3.5 mphOvercast
8:15 AM35.6 °F26.6 °F70 %30.33 in10.0 miEast (100°)3.5 mphOvercast
8:55 AM37.4 °F28.4 °F70 %30.34 in10.0 miCalmOvercast
9:35 AM39.2 °F30.2 °F70 %30.35 in10.0 miNNE (30°)3.5 mphOvercast
9:56 AM39.2 °F28.4 °F65 %30.35 in10.0 miCalmOvercast
10:15 AM41.0 °F30.2 °F65 %30.34 in10.0 miSouth (180°)4.6 mphOvercast
10:35 AM42.8 °F30.2 °F61 %30.34 in10.0 miSouth (190°)4.6 mphMostly Cloudy
10:55 AM46.4 °F32.0 °F57 %30.33 in10.0 miSouth (170°)6.9 mphMostly Cloudy
11:15 AM46.4 °F33.8 °F62 %30.33 in10.0 miSouth (170°)5.8 mphScattered Clouds
11:35 AM48.2 °F33.8 °F58 %30.31 in10.0 miSouth (180°)6.9 mphScattered Clouds
11:55 AM51.8 °F33.8 °F50 %30.30 in10.0 miSSW (200°)9.2 mphScattered Clouds
12:16 PM51.8 °F35.6 °F54 %30.29 in10.0 miSouth (190°)9.2 mphMostly Cloudy
12:35 PM53.6 °F35.6 °F51 %30.28 in10.0 miSSW (210°)6.9 mphScattered Clouds
12:55 PM53.6 °F37.4 °F54 %30.26 in10.0 miSW (230°)8.1 mphPartly Cloudy
1:35 PM53.6 °F37.4 °F54 %30.25 in10.0 miWSW (250°)8.1 mphPartly Cloudy
2:15 PM55.4 °F39.2 °F54 %30.23 in10.0 miWSW (250°)8.1 mphClear
2:36 PM55.4 °F39.2 °F54 %30.23 in10.0 miWSW (240°)5.8 mphClear
3:15 PM57.2 °F39.2 °F51 %30.23 in10.0 miSW (220°)3.5 mphClear
3:55 PM55.4 °F39.2 °F54 %30.22 in10.0 miCalmClear
4:15 PM55.4 °F39.2 °F54 %30.22 in10.0 miCalmClear
4:35 PM55.4 °F39.2 °F54 %30.22 in10.0 miNNE (20°)3.5 mphClear
4:56 PM53.6 °F41.0 °F62 %30.21 in10.0 miCalmClear
5:15 PM53.6 °F41.0 °F62 %30.20 in10.0 miEast (80°)3.5 mphClear
5:35 PM51.8 °F39.2 °F62 %30.20 in10.0 miCalmClear
6:15 PM50.0 °F39.2 °F66 %30.20 in10.0 miENE (70°)5.8 mphClear
6:35 PM50.0 °F42.8 °F76 %30.20 in10.0 miEast (100°)5.8 mphClear
6:55 PM50.0 °F39.2 °F66 %30.20 in10.0 miEast (90°)4.6 mphClear
7:16 PM48.2 °F41.0 °F76 %30.20 in10.0 miEast (100°)5.8 mphClear
7:35 PM48.2 °F39.2 °F71 %30.20 in10.0 miESE (110°)5.8 mphClear
7:55 PM48.2 °F39.2 °F71 %30.20 in10.0 miESE (110°)6.9 mphClear
8:35 PM48.2 °F41.0 °F76 %30.20 in10.0 miESE (120°)5.8 mphClear
8:55 PM48.2 °F41.0 °F76 %30.21 in9.0 miCalmClear
9:15 PM44.6 °F39.2 °F81 %30.21 in10.0 miSSE (150°)3.5 mphClear
9:36 PM46.4 °F41.0 °F81 %30.22 in10.0 miSE (140°)5.8 mphClear
9:55 PM46.4 °F39.2 °F76 %30.22 in10.0 miSE (140°)5.8 mphClear
10:15 PM46.4 °F39.2 °F76 %30.22 in10.0 miSE (130°)4.6 mphPartly Cloudy
10:36 PM46.4 °F39.2 °F76 %30.22 in10.0 miSE (140°)4.6 mphMostly Cloudy
10:55 PM46.4 °F41.0 °F81 %30.22 in9.0 miSE (130°)3.5 mphOvercast
11:15 PM46.4 °F39.2 °F76 %30.22 in10.0 miCalmOvercast
11:55 PM46.4 °F39.2 °F76 %30.22 in10.0 miCalmMostly Cloudy
Hourly data recorded from KSGT, located miles away from Roe, Arkansas







STORIES FROM OUR PARTNERS